Location: Dresden
(51.0483°N, 13.7137°E)
Time: 23:27:31
(UTC+01:00)

ISS - Pass Details

Date: 12 November 2017
Orbit: 402 x 407 km, 51.6° (Epoch: 24 November)

Event Time Altitude Azimuth Distance (km) Brightness Sun altitude
Exits shadow 05:52:30 25° 269° (W) 864 -2.8 -13.2°
Maximum altitude 05:54:08 52° 203° (SSW) 507 -3.5 -13.0°
Drops below altitude 10° 05:57:18 10° 126° (SE) 1,453 0.1 -12.5°
Sets 05:59:24 0° 121° (ESE) 2,310 1.6 -12.2°
